Time,TemperatureF,DewpointF,PressureIn,WindDirection,WindDirectionDegrees,WindSpeedMPH,WindSpeedGustMPH,Humidity,HourlyPrecipIn,Conditions,Clouds,dailyrainin,SoftwareType,DateUTC
2013-04-11 00:01:00,40.7,39.3,30.00,NE,49,6.0,10.0,95,0.00,,,0.77,WUHU216DAVISVP2,2013-04-11 04:01:00,
2013-04-11 00:06:00,40.8,39.4,30.00,North,6,3.0,10.0,95,0.00,,,0.00,WUHU216DAVISVP2,2013-04-11 04:06:00,
2013-04-11 00:11:00,40.8,39.4,30.00,NNW,347,4.0,9.0,95,0.00,,,0.00,WUHU216DAVISVP2,2013-04-11 04:11:00,
2013-04-11 00:17:00,40.8,39.4,30.00,North,357,3.0,8.0,95,0.00,,,0.00,WUHU216DAVISVP2,2013-04-11 04:17:00,
2013-04-11 00:22:00,40.9,39.5,30.00,NNW,339,3.0,8.0,95,0.00,,,0.00,WUHU216DAVISVP2,2013-04-11 04:22:00,
2013-04-11 00:27:00,40.8,39.4,29.99,NNE,20,4.0,8.0,95,0.00,,,0.00,WUHU216DAVISVP2,2013-04-11 04:27:00,
2013-04-11 00:33:00,40.8,39.4,29.99,NNE,30,3.0,8.0,95,0.00,,,0.00,WUHU216DAVISVP2,2013-04-11 04:33:00,
2013-04-11 00:39:00,40.8,39.4,29.99,NNE,23,3.0,7.0,95,0.00,,,0.00,WUHU216DAVISVP2,2013-04-11 04:39:00,
2013-04-11 00:44:00,40.8,39.5,29.99,North,349,2.0,7.0,95,0.00,,,0.00,WUHU216DAVISVP2,2013-04-11 04:44:00,
2013-04-11 00:51:00,40.8,39.4,29.99,NNE,18,3.0,6.0,95,0.00,,,0.00,WUHU216DAVISVP2,2013-04-11 04:51:00,
2013-04-11 00:56:00,40.9,39.5,29.99,North,358,3.0,6.0,95,0.00,,,0.00,WUHU216DAVISVP2,2013-04-11 04:56:00,
2013-04-11 01:02:00,40.8,39.2,29.98,North,1,0.0,5.0,94,0.00,,,0.00,WUHU216DAVISVP2,2013-04-11 05:02:00,
2013-04-11 01:07:00,40.8,39.2,29.98,NE,38,3.0,5.0,94,0.00,,,0.00,WUHU216DAVISVP2,2013-04-11 05:07:00,
2013-04-11 01:13:00,40.8,39.2,29.97,NE,36,4.0,5.0,94,0.00,,,0.00,WUHU216DAVISVP2,2013-04-11 05:13:00,
2013-04-11 01:18:00,40.8,39.2,29.98,NE,41,6.0,7.0,94,0.00,,,0.00,WUHU216DAVISVP2,2013-04-11 05:18:00,
2013-04-11 01:23:00,40.8,39.2,29.98,NNE,33,3.0,7.0,94,0.00,,,0.00,WUHU216DAVISVP2,2013-04-11 05:23:00,
2013-04-11 01:29:00,40.7,39.1,29.99,NW,323,2.0,6.0,94,0.00,,,0.00,WUHU216DAVISVP2,2013-04-11 05:29:00,
2013-04-11 01:34:00,40.7,38.8,29.99,NNW,336,4.0,6.0,93,0.00,,,0.00,WUHU216DAVISVP2,2013-04-11 05:34:00,
2013-04-11 01:39:00,40.7,38.8,30.00,NW,321,4.0,7.0,93,0.00,,,0.00,WUHU216DAVISVP2,2013-04-11 05:39:00,
2013-04-11 01:44:00,40.7,38.8,30.00,NW,321,2.0,7.0,93,0.00,,,0.00,WUHU216DAVISVP2,2013-04-11 05:44:00,
2013-04-11 01:49:00,40.6,38.7,29.99,NNE,13,2.0,7.0,93,0.00,,,0.00,WUHU216DAVISVP2,2013-04-11 05:49:00,
2013-04-11 01:56:00,40.6,38.7,29.98,NNW,329,2.0,8.0,93,0.00,,,0.00,WUHU216DAVISVP2,2013-04-11 05:56:00,
2013-04-11 02:01:00,40.5,38.6,29.98,North,10,4.0,8.0,93,0.00,,,0.00,WUHU216DAVISVP2,2013-04-11 06:01:00,
2013-04-11 02:06:00,40.4,38.5,29.98,NE,51,2.0,7.0,93,0.00,,,0.00,WUHU216DAVISVP2,2013-04-11 06:06:00,
2013-04-11 02:11:00,40.4,38.5,29.97,North,359,2.0,7.0,93,0.00,,,0.00,WUHU216DAVISVP2,2013-04-11 06:11:00,
2013-04-11 02:16:00,40.3,38.4,29.97,NNE,22,2.0,6.0,93,0.00,,,0.00,WUHU216DAVISVP2,2013-04-11 06:16:00,
2013-04-11 02:22:00,40.3,38.4,29.97,NNE,23,2.0,4.0,93,0.00,,,0.00,WUHU216DAVISVP2,2013-04-11 06:22:00,
2013-04-11 02:27:00,40.2,38.3,29.97,NNW,338,2.0,4.0,93,0.00,,,0.00,WUHU216DAVISVP2,2013-04-11 06:27:00,
2013-04-11 02:32:00,40.1,38.2,29.98,NNW,336,2.0,5.0,93,0.00,,,0.00,WUHU216DAVISVP2,2013-04-11 06:32:00,
2013-04-11 02:39:00,40.1,38.2,29.98,NNW,336,2.0,5.0,93,0.00,,,0.00,WUHU216DAVISVP2,2013-04-11 06:39:00,
2013-04-11 02:44:00,40.1,38.2,29.99,NNW,347,3.0,5.0,93,0.00,,,0.00,WUHU216DAVISVP2,2013-04-11 06:44:00,
2013-04-11 02:49:00,40.0,38.1,29.99,NNW,334,5.0,5.0,93,0.00,,,0.00,WUHU216DAVISVP2,2013-04-11 06:49:00,
2013-04-11 02:54:00,40.0,38.1,29.98,North,355,3.0,5.0,93,0.00,,,0.00,WUHU216DAVISVP2,2013-04-11 06:54:00,
2013-04-11 02:59:00,40.0,38.1,29.99,NNW,330,2.0,5.0,93,0.00,,,0.00,WUHU216DAVISVP2,2013-04-11 06:59:00,
2013-04-11 03:07:00,40.1,37.9,29.99,NNW,338,2.0,6.0,92,0.00,,,0.00,WUHU216DAVISVP2,2013-04-11 07:07:00,
2013-04-11 03:13:00,40.1,37.9,30.00,NNW,332,3.0,6.0,92,0.00,,,0.00,WUHU216DAVISVP2,2013-04-11 07:13:00,
2013-04-11 03:18:00,40.0,37.5,30.00,NNW,334,3.0,7.0,91,0.00,,,0.00,WUHU216DAVISVP2,2013-04-11 07:18:00,
2013-04-11 03:23:00,40.1,37.9,30.00,NNW,330,6.0,7.0,92,0.00,,,0.00,WUHU216DAVISVP2,2013-04-11 07:23:00,
2013-04-11 03:29:00,40.0,37.5,30.00,NNW,335,2.0,8.0,91,0.00,,,0.00,WUHU216DAVISVP2,2013-04-11 07:29:00,
2013-04-11 03:40:00,40.0,37.5,30.00,NNW,334,3.0,7.0,91,0.00,,,0.00,WUHU216DAVISVP2,2013-04-11 07:40:00,
2013-04-11 03:45:00,40.0,37.5,30.01,NW,322,2.0,7.0,91,0.00,,,0.00,WUHU216DAVISVP2,2013-04-11 07:45:00,
2013-04-11 03:50:00,39.9,37.5,30.01,North,349,5.0,9.0,91,0.00,,,0.00,WUHU216DAVISVP2,2013-04-11 07:50:00,
2013-04-11 03:55:00,40.0,37.3,30.01,NNW,345,3.0,9.0,90,0.00,,,0.00,WUHU216DAVISVP2,2013-04-11 07:55:00,
2013-04-11 04:00:00,39.9,37.2,30.02,North,9,4.0,9.0,90,0.00,,,0.00,WUHU216DAVISVP2,2013-04-11 08:00:00,
2013-04-11 04:05:00,40.0,37.3,30.02,NNW,332,3.0,9.0,90,0.00,,,0.00,WUHU216DAVISVP2,2013-04-11 08:05:00,
2013-04-11 04:10:00,40.0,37.0,30.02,NNE,19,6.0,8.0,89,0.00,,,0.00,WUHU216DAVISVP2,2013-04-11 08:10:00,
2013-04-11 04:15:00,40.0,37.0,30.02,NW,315,6.0,8.0,89,0.00,,,0.00,WUHU216DAVISVP2,2013-04-11 08:15:00,
2013-04-11 04:20:00,40.0,36.7,30.03,NNE,29,8.0,11.0,88,0.00,,,0.00,WUHU216DAVISVP2,2013-04-11 08:20:00,
2013-04-11 04:25:00,40.0,36.7,30.03,NNW,347,3.0,11.0,88,0.00,,,0.00,WUHU216DAVISVP2,2013-04-11 08:25:00,
2013-04-11 04:30:00,40.0,36.4,30.04,NNE,21,5.0,10.0,87,0.00,,,0.00,WUHU216DAVISVP2,2013-04-11 08:30:00,
2013-04-11 04:35:00,40.0,36.1,30.04,North,8,5.0,10.0,86,0.00,,,0.00,WUHU216DAVISVP2,2013-04-11 08:35:00,
2013-04-11 04:40:00,40.0,36.1,30.04,NW,321,4.0,10.0,86,0.00,,,0.00,WUHU216DAVISVP2,2013-04-11 08:40:00,
2013-04-11 04:45:00,40.0,35.8,30.04,NNW,347,6.0,12.0,85,0.00,,,0.00,WUHU216DAVISVP2,2013-04-11 08:45:00,
2013-04-11 04:50:00,40.0,35.9,30.04,NNW,330,5.0,13.0,85,0.00,,,0.00,WUHU216DAVISVP2,2013-04-11 08:50:00,
2013-04-11 04:55:00,40.0,35.6,30.04,NNE,33,8.0,13.0,84,0.00,,,0.00,WUHU216DAVISVP2,2013-04-11 08:55:00,
2013-04-11 05:00:00,40.0,35.5,30.05,North,353,3.0,13.0,84,0.00,,,0.00,WUHU216DAVISVP2,2013-04-11 09:00:00,
2013-04-11 05:06:00,39.9,35.4,30.04,NW,323,2.0,11.0,84,0.00,,,0.00,WUHU216DAVISVP2,2013-04-11 09:06:00,
2013-04-11 05:11:00,39.9,35.2,30.05,North,353,4.0,13.0,83,0.00,,,0.00,WUHU216DAVISVP2,2013-04-11 09:11:00,
2013-04-11 05:16:00,39.8,34.8,30.04,North,5,5.0,13.0,82,0.00,,,0.00,WUHU216DAVISVP2,2013-04-11 09:16:00,
2013-04-11 05:21:00,39.8,34.8,30.04,NNW,346,5.0,13.0,82,0.00,,,0.00,WUHU216DAVISVP2,2013-04-11 09:21:00,
2013-04-11 05:27:00,39.7,34.4,30.03,NNE,14,5.0,12.0,81,0.00,,,0.00,WUHU216DAVISVP2,2013-04-11 09:27:00,
2013-04-11 05:32:00,39.6,34.0,30.03,NNE,19,10.0,13.0,80,0.00,,,0.00,WUHU216DAVISVP2,2013-04-11 09:32:00,
2013-04-11 05:37:00,39.5,33.9,30.03,NE,37,4.0,13.0,80,0.00,,,0.00,WUHU216DAVISVP2,2013-04-11 09:37:00,
2013-04-11 05:42:00,39.4,32.8,30.03,NNW,347,4.0,13.0,77,0.00,,,0.00,WUHU216DAVISVP2,2013-04-11 09:42:00,
2013-04-11 05:47:00,39.3,32.7,30.03,NE,47,8.0,12.0,77,0.00,,,0.00,WUHU216DAVISVP2,2013-04-11 09:47:00,
2013-04-11 05:52:00,39.2,32.3,30.02,NNE,25,6.0,12.0,76,0.00,,,0.00,WUHU216DAVISVP2,2013-04-11 09:52:00,
2013-04-11 05:58:00,39.1,31.9,30.02,NNE,12,4.0,12.0,75,0.00,,,0.00,WUHU216DAVISVP2,2013-04-11 09:58:00,
2013-04-11 06:03:00,39.0,30.8,30.03,North,354,2.0,12.0,72,0.00,,,0.00,WUHU216DAVISVP2,2013-04-11 10:03:00,
2013-04-11 06:09:00,38.9,31.0,30.04,NNE,29,5.0,11.0,73,0.00,,,0.00,WUHU216DAVISVP2,2013-04-11 10:09:00,
2013-04-11 06:14:00,38.9,31.0,30.04,NE,36,4.0,10.0,73,0.00,,,0.00,WUHU216DAVISVP2,2013-04-11 10:14:00,
2013-04-11 06:19:00,38.9,31.4,30.04,NE,53,1.0,11.0,74,0.00,,,0.00,WUHU216DAVISVP2,2013-04-11 10:19:00,
2013-04-11 06:25:00,38.8,30.5,30.04,NE,39,6.0,11.0,72,0.00,,,0.00,WUHU216DAVISVP2,2013-04-11 10:25:00,
2013-04-11 06:30:00,38.7,30.2,30.03,ESE,106,7.0,11.0,71,0.00,,,0.00,WUHU216DAVISVP2,2013-04-11 10:30:00,
2013-04-11 06:36:00,38.6,29.7,30.03,NE,44,7.0,11.0,70,0.00,,,0.00,WUHU216DAVISVP2,2013-04-11 10:36:00,
2013-04-11 06:41:00,38.5,30.0,30.03,NE,40,7.0,12.0,71,0.00,,,0.00,WUHU216DAVISVP2,2013-04-11 10:41:00,
2013-04-11 06:46:00,38.4,30.2,30.03,NNW,341,2.0,12.0,72,0.00,,,0.00,WUHU216DAVISVP2,2013-04-11 10:46:00,
2013-04-11 06:53:00,38.3,29.4,30.03,NNE,30,9.0,14.0,70,0.00,,,0.00,WUHU216DAVISVP2,2013-04-11 10:53:00,
2013-04-11 06:59:00,38.3,30.1,30.03,North,354,5.0,14.0,72,0.00,,,0.00,WUHU216DAVISVP2,2013-04-11 10:59:00,
2013-04-11 07:05:00,38.2,30.4,30.03,NNE,19,3.0,13.0,73,0.00,,,0.00,WUHU216DAVISVP2,2013-04-11 11:05:00,
2013-04-11 07:10:00,38.2,30.0,30.03,NE,53,5.0,13.0,72,0.00,,,0.00,WUHU216DAVISVP2,2013-04-11 11:10:00,
2013-04-11 07:16:00,38.2,30.0,30.04,NE,50,8.0,11.0,72,0.00,,,0.00,WUHU216DAVISVP2,2013-04-11 11:16:00,
2013-04-11 07:21:00,38.1,29.9,30.04,ENE,65,9.0,11.0,72,0.00,,,0.00,WUHU216DAVISVP2,2013-04-11 11:21:00,
2013-04-11 07:26:00,38.1,29.9,30.03,NW,316,4.0,11.0,72,0.00,,,0.00,WUHU216DAVISVP2,2013-04-11 11:26:00,
2013-04-11 07:32:00,38.1,29.9,30.04,North,349,2.0,10.0,72,0.00,,,0.00,WUHU216DAVISVP2,2013-04-11 11:32:00,
2013-04-11 07:37:00,38.0,29.8,30.05,North,360,4.0,11.0,72,0.00,,,0.00,WUHU216DAVISVP2,2013-04-11 11:37:00,
2013-04-11 07:42:00,38.0,29.4,30.05,NNE,16,2.0,11.0,71,0.00,,,0.00,WUHU216DAVISVP2,2013-04-11 11:42:00,
2013-04-11 07:49:00,37.9,29.3,30.06,NNE,20,4.0,11.0,71,0.00,,,0.00,WUHU216DAVISVP2,2013-04-11 11:49:00,
2013-04-11 07:54:00,37.9,29.3,30.05,North,357,3.0,11.0,71,0.00,,,0.00,WUHU216DAVISVP2,2013-04-11 11:54:00,
2013-04-11 08:01:00,37.9,29.0,30.05,ENE,65,5.0,11.0,70,0.00,,,0.00,WUHU216DAVISVP2,2013-04-11 12:01:00,
2013-04-11 08:06:00,37.8,29.2,30.06,North,9,2.0,10.0,71,0.00,,,0.00,WUHU216DAVISVP2,2013-04-11 12:06:00,
2013-04-11 08:13:00,37.8,28.9,30.05,NNE,25,11.0,12.0,70,0.00,,,0.00,WUHU216DAVISVP2,2013-04-11 12:13:00,
2013-04-11 08:18:00,37.6,29.4,30.04,NE,34,12.0,12.0,72,0.00,,,0.00,WUHU216DAVISVP2,2013-04-11 12:18:00,
2013-04-11 08:23:00,37.5,29.6,30.03,NE,44,6.0,12.0,73,0.00,,,0.00,WUHU216DAVISVP2,2013-04-11 12:23:00,
2013-04-11 08:28:00,37.3,29.1,30.03,NE,44,5.0,12.0,72,0.00,,,0.00,WUHU216DAVISVP2,2013-04-11 12:28:00,
2013-04-11 08:33:00,37.1,28.2,30.04,North,9,6.0,17.0,70,0.00,,,0.00,WUHU216DAVISVP2,2013-04-11 12:33:00,
2013-04-11 08:38:00,37.0,28.8,30.05,North,351,7.0,17.0,72,0.00,,,0.00,WUHU216DAVISVP2,2013-04-11 12:38:00,
2013-04-11 08:43:00,36.9,28.4,30.06,NE,46,0.0,16.0,71,0.00,,,0.00,WUHU216DAVISVP2,2013-04-11 12:43:00,
2013-04-11 08:49:00,36.8,29.3,30.07,North,360,2.0,13.0,74,0.00,,,0.00,WUHU216DAVISVP2,2013-04-11 12:49:00,
2013-04-11 08:55:00,36.5,29.1,30.06,NE,39,3.0,10.0,74,0.00,,,0.00,WUHU216DAVISVP2,2013-04-11 12:55:00,
2013-04-11 09:00:00,36.2,29.7,30.05,NNE,33,4.0,10.0,77,0.01,,,0.01,WUHU216DAVISVP2,2013-04-11 13:00:00,
2013-04-11 09:05:00,35.9,30.0,30.05,North,360,4.0,10.0,79,0.01,,,0.01,WUHU216DAVISVP2,2013-04-11 13:05:00,
2013-04-11 09:11:00,35.7,30.4,30.06,NE,46,2.0,10.0,81,0.01,,,0.01,WUHU216DAVISVP2,2013-04-11 13:11:00,
2013-04-11 09:16:00,35.7,29.8,30.07,NE,34,5.0,10.0,79,0.02,,,0.02,WUHU216DAVISVP2,2013-04-11 13:16:00,
2013-04-11 09:21:00,35.5,30.2,30.07,NNE,25,4.0,11.0,81,0.03,,,0.03,WUHU216DAVISVP2,2013-04-11 13:21:00,
2013-04-11 09:26:00,35.3,30.4,30.09,NW,326,4.0,11.0,82,0.03,,,0.03,WUHU216DAVISVP2,2013-04-11 13:26:00,
2013-04-11 09:32:00,35.2,30.5,30.09,North,353,5.0,10.0,83,0.03,,,0.03,WUHU216DAVISVP2,2013-04-11 13:32:00,
2013-04-11 09:38:00,35.2,30.8,30.11,NNW,339,8.0,10.0,84,0.03,,,0.03,WUHU216DAVISVP2,2013-04-11 13:38:00,
2013-04-11 09:43:00,35.0,30.6,30.11,North,360,6.0,10.0,84,0.03,,,0.03,WUHU216DAVISVP2,2013-04-11 13:43:00,
2013-04-11 09:48:00,35.0,30.6,30.11,North,8,4.0,10.0,84,0.04,,,0.04,WUHU216DAVISVP2,2013-04-11 13:48:00,
2013-04-11 09:53:00,34.8,30.7,30.09,ENE,65,1.0,10.0,85,0.07,,,0.07,WUHU216DAVISVP2,2013-04-11 13:53:00,
2013-04-11 09:59:00,34.8,31.3,30.10,NNE,32,4.0,10.0,87,0.07,,,0.08,WUHU216DAVISVP2,2013-04-11 13:59:00,
2013-04-11 10:04:00,34.8,31.6,30.09,NNE,23,8.0,9.0,88,0.07,,,0.08,WUHU216DAVISVP2,2013-04-11 14:04:00,
2013-04-11 10:09:00,34.8,31.6,30.09,North,355,2.0,10.0,88,0.07,,,0.08,WUHU216DAVISVP2,2013-04-11 14:09:00,
2013-04-11 10:14:00,34.9,31.7,30.11,NNE,27,3.0,10.0,88,0.06,,,0.08,WUHU216DAVISVP2,2013-04-11 14:14:00,
2013-04-11 10:19:00,34.8,31.3,30.11,NE,34,6.0,10.0,87,0.05,,,0.08,WUHU216DAVISVP2,2013-04-11 14:19:00,
2013-04-11 10:24:00,34.6,30.8,30.11,North,5,4.0,11.0,86,0.05,,,0.08,WUHU216DAVISVP2,2013-04-11 14:24:00,
2013-04-11 10:31:00,34.6,31.4,30.13,North,5,5.0,11.0,88,0.05,,,0.08,WUHU216DAVISVP2,2013-04-11 14:31:00,
2013-04-11 10:38:00,34.4,31.2,30.14,NNE,13,3.0,10.0,88,0.05,,,0.08,WUHU216DAVISVP2,2013-04-11 14:38:00,
2013-04-11 10:43:00,34.3,31.4,30.13,North,6,6.0,11.0,89,0.06,,,0.09,WUHU216DAVISVP2,2013-04-11 14:43:00,
2013-04-11 10:48:00,34.2,31.3,30.13,NE,44,4.0,11.0,89,0.04,,,0.09,WUHU216DAVISVP2,2013-04-11 14:48:00,
2013-04-11 10:54:00,34.1,30.6,30.13,NE,44,5.0,13.0,87,0.02,,,0.09,WUHU216DAVISVP2,2013-04-11 14:54:00,
2013-04-11 10:59:00,34.1,31.2,30.14,North,349,4.0,13.0,89,0.01,,,0.09,WUHU216DAVISVP2,2013-04-11 14:59:00,
2013-04-11 11:04:00,34.1,31.4,30.13,NNE,23,7.0,12.0,90,0.01,,,0.09,WUHU216DAVISVP2,2013-04-11 15:04:00,
2013-04-11 11:10:00,34.1,31.5,30.14,NNW,340,4.0,12.0,90,0.01,,,0.09,WUHU216DAVISVP2,2013-04-11 15:10:00,
2013-04-11 11:15:00,34.1,31.4,30.13,NE,46,7.0,12.0,90,0.01,,,0.09,WUHU216DAVISVP2,2013-04-11 15:15:00,
2013-04-11 11:20:00,34.1,31.7,30.14,North,360,3.0,12.0,91,0.01,,,0.09,WUHU216DAVISVP2,2013-04-11 15:20:00,
2013-04-11 11:27:00,34.1,31.7,30.14,North,351,4.0,9.0,91,0.02,,,0.10,WUHU216DAVISVP2,2013-04-11 15:27:00,
2013-04-11 11:32:00,34.1,32.0,30.16,NNE,26,5.0,8.0,92,0.02,,,0.10,WUHU216DAVISVP2,2013-04-11 15:32:00,
2013-04-11 11:37:00,34.2,32.1,30.18,NNW,339,3.0,8.0,92,0.01,,,0.10,WUHU216DAVISVP2,2013-04-11 15:37:00,
2013-04-11 11:42:00,34.3,32.2,30.17,NNW,328,6.0,8.0,92,0.01,,,0.10,WUHU216DAVISVP2,2013-04-11 15:42:00,
2013-04-11 11:48:00,34.3,32.2,30.15,NNE,18,3.0,8.0,92,0.01,,,0.10,WUHU216DAVISVP2,2013-04-11 15:48:00,
2013-04-11 11:54:00,34.2,32.1,30.14,NE,44,6.0,8.0,92,0.01,,,0.10,WUHU216DAVISVP2,2013-04-11 15:54:00,
2013-04-11 11:59:00,34.1,31.7,30.15,NNE,32,5.0,9.0,91,0.02,,,0.11,WUHU216DAVISVP2,2013-04-11 15:59:00,
2013-04-11 12:04:00,34.0,31.9,30.13,NE,44,4.0,9.0,92,0.03,,,0.12,WUHU216DAVISVP2,2013-04-11 16:04:00,
2013-04-11 12:09:00,33.9,31.8,30.13,NNE,21,1.0,9.0,92,0.03,,,0.12,WUHU216DAVISVP2,2013-04-11 16:09:00,
2013-04-11 12:14:00,33.9,32.0,30.14,NNE,26,7.0,9.0,93,0.04,,,0.13,WUHU216DAVISVP2,2013-04-11 16:14:00,
2013-04-11 12:20:00,34.0,32.1,30.12,NE,46,4.0,10.0,93,0.05,,,0.14,WUHU216DAVISVP2,2013-04-11 16:20:00,
2013-04-11 12:26:00,34.1,32.5,30.12,SE,140,1.0,10.0,94,0.04,,,0.14,WUHU216DAVISVP2,2013-04-11 16:26:00,
2013-04-11 12:31:00,34.1,32.5,30.12,NE,46,2.0,10.0,94,0.04,,,0.14,WUHU216DAVISVP2,2013-04-11 16:31:00,
2013-04-11 12:36:00,34.3,32.7,30.10,NE,55,8.0,10.0,94,0.04,,,0.14,WUHU216DAVISVP2,2013-04-11 16:36:00,
2013-04-11 12:42:00,34.4,32.8,30.13,NNE,13,2.0,10.0,94,0.04,,,0.14,WUHU216DAVISVP2,2013-04-11 16:42:00,
2013-04-11 12:47:00,34.5,32.6,30.13,NW,323,3.0,10.0,93,0.04,,,0.14,WUHU216DAVISVP2,2013-04-11 16:47:00,
2013-04-11 12:52:00,34.6,32.7,30.12,NNE,16,6.0,11.0,93,0.04,,,0.14,WUHU216DAVISVP2,2013-04-11 16:52:00,
2013-04-11 12:57:00,34.9,33.3,30.13,NE,46,8.0,11.0,94,0.03,,,0.14,WUHU216DAVISVP2,2013-04-11 16:57:00,
2013-04-11 13:02:00,34.8,32.9,30.11,NNE,33,8.0,10.0,93,0.02,,,0.14,WUHU216DAVISVP2,2013-04-11 17:02:00,
2013-04-11 13:08:00,34.8,32.9,30.11,East,81,3.0,11.0,93,0.02,,,0.14,WUHU216DAVISVP2,2013-04-11 17:08:00,
2013-04-11 13:14:00,34.8,32.7,30.11,East,91,7.0,11.0,92,0.01,,,0.14,WUHU216DAVISVP2,2013-04-11 17:14:00,
2013-04-11 13:19:00,35.0,33.1,30.11,NNE,33,8.0,11.0,93,0.01,,,0.14,WUHU216DAVISVP2,2013-04-11 17:19:00,
2013-04-11 13:24:00,35.0,32.9,30.11,North,6,3.0,10.0,92,0.00,,,0.14,WUHU216DAVISVP2,2013-04-11 17:24:00,
2013-04-11 13:29:00,35.0,32.9,30.11,ENE,58,7.0,10.0,92,0.00,,,0.14,WUHU216DAVISVP2,2013-04-11 17:29:00,
2013-04-11 13:35:00,35.0,32.3,30.11,NNE,21,6.0,11.0,90,0.00,,,0.14,WUHU216DAVISVP2,2013-04-11 17:35:00,
2013-04-11 13:40:00,35.1,32.7,30.09,ENE,66,3.0,11.0,91,0.00,,,0.14,WUHU216DAVISVP2,2013-04-11 17:40:00,
2013-04-11 13:45:00,35.4,32.8,30.11,NE,42,3.0,11.0,90,0.00,,,0.14,WUHU216DAVISVP2,2013-04-11 17:45:00,
2013-04-11 13:52:00,35.4,32.7,30.11,NE,46,1.0,9.0,90,0.00,,,0.14,WUHU216DAVISVP2,2013-04-11 17:52:00,
2013-04-11 13:58:00,35.4,32.4,30.11,NNE,29,4.0,9.0,89,0.00,,,0.14,WUHU216DAVISVP2,2013-04-11 17:58:00,
2013-04-11 14:03:00,35.4,32.7,30.12,ENE,63,3.0,12.0,90,0.00,,,0.14,WUHU216DAVISVP2,2013-04-11 18:03:00,
2013-04-11 14:08:00,35.4,32.4,30.11,NE,54,3.0,12.0,89,0.00,,,0.14,WUHU216DAVISVP2,2013-04-11 18:08:00,
2013-04-11 14:15:00,35.5,32.5,30.11,NE,46,4.0,12.0,89,0.00,,,0.14,WUHU216DAVISVP2,2013-04-11 18:15:00,
2013-04-11 14:20:00,35.3,32.3,30.11,NE,56,5.0,12.0,89,0.00,,,0.14,WUHU216DAVISVP2,2013-04-11 18:20:00,
2013-04-11 14:25:00,35.3,32.7,30.10,NNE,21,1.0,12.0,90,0.01,,,0.15,WUHU216DAVISVP2,2013-04-11 18:25:00,
2013-04-11 14:31:00,35.3,32.6,30.11,NE,37,8.0,11.0,90,0.01,,,0.15,WUHU216DAVISVP2,2013-04-11 18:31:00,
2013-04-11 14:36:00,35.2,32.5,30.11,NNE,27,2.0,11.0,90,0.01,,,0.15,WUHU216DAVISVP2,2013-04-11 18:36:00,
2013-04-11 14:41:00,35.2,32.8,30.11,NE,56,4.0,11.0,91,0.01,,,0.15,WUHU216DAVISVP2,2013-04-11 18:41:00,
2013-04-11 14:46:00,35.1,32.7,30.11,NE,49,5.0,11.0,91,0.01,,,0.15,WUHU216DAVISVP2,2013-04-11 18:46:00,
2013-04-11 14:51:00,35.2,33.1,30.10,NE,37,4.0,11.0,92,0.01,,,0.15,WUHU216DAVISVP2,2013-04-11 18:51:00,
2013-04-11 14:56:00,35.2,33.1,30.10,NE,44,5.0,11.0,92,0.01,,,0.15,WUHU216DAVISVP2,2013-04-11 18:56:00,
2013-04-11 15:02:00,35.1,33.0,30.10,NE,43,6.0,8.0,92,0.01,,,0.15,WUHU216DAVISVP2,2013-04-11 19:02:00,
2013-04-11 15:07:00,35.1,33.0,30.09,ENE,65,4.0,9.0,92,0.02,,,0.16,WUHU216DAVISVP2,2013-04-11 19:07:00,
2013-04-11 15:12:00,35.1,33.0,30.10,NE,43,2.0,9.0,92,0.02,,,0.16,WUHU216DAVISVP2,2013-04-11 19:12:00,
2013-04-11 15:17:00,35.1,33.0,30.08,NE,35,6.0,9.0,92,0.02,,,0.16,WUHU216DAVISVP2,2013-04-11 19:17:00,
2013-04-11 15:23:00,35.1,33.0,30.09,NE,37,6.0,9.0,92,0.01,,,0.16,WUHU216DAVISVP2,2013-04-11 19:23:00,
2013-04-11 15:29:00,35.1,33.2,30.08,ENE,60,5.0,9.0,93,0.01,,,0.16,WUHU216DAVISVP2,2013-04-11 19:29:00,
2013-04-11 15:35:00,35.1,33.2,30.09,NNE,27,6.0,9.0,93,0.01,,,0.16,WUHU216DAVISVP2,2013-04-11 19:35:00,
2013-04-11 15:40:00,35.1,33.2,30.09,North,360,4.0,10.0,93,0.01,,,0.16,WUHU216DAVISVP2,2013-04-11 19:40:00,
2013-04-11 15:45:00,35.1,33.3,30.09,NE,49,4.0,10.0,93,0.01,,,0.16,WUHU216DAVISVP2,2013-04-11 19:45:00,
2013-04-11 15:51:00,35.1,33.2,30.09,NNE,19,4.0,9.0,93,0.01,,,0.16,WUHU216DAVISVP2,2013-04-11 19:51:00,
2013-04-11 15:56:00,35.1,33.2,30.09,NNE,21,4.0,9.0,93,0.01,,,0.16,WUHU216DAVISVP2,2013-04-11 19:56:00,
2013-04-11 16:02:00,35.2,33.3,30.08,NE,51,8.0,11.0,93,0.01,,,0.16,WUHU216DAVISVP2,2013-04-11 20:02:00,
2013-04-11 16:07:00,35.1,33.2,30.10,NNE,25,6.0,12.0,93,0.00,,,0.16,WUHU216DAVISVP2,2013-04-11 20:07:00,
2013-04-11 16:13:00,35.3,33.4,30.09,NNE,12,7.0,12.0,93,0.00,,,0.16,WUHU216DAVISVP2,2013-04-11 20:13:00,
2013-04-11 16:18:00,35.5,33.6,30.09,NNE,30,4.0,12.0,93,0.00,,,0.16,WUHU216DAVISVP2,2013-04-11 20:18:00,
2013-04-11 16:24:00,35.4,33.5,30.08,NE,44,6.0,11.0,93,0.00,,,0.16,WUHU216DAVISVP2,2013-04-11 20:24:00,
2013-04-11 16:29:00,35.5,33.6,30.09,ENE,60,2.0,11.0,93,0.00,,,0.16,WUHU216DAVISVP2,2013-04-11 20:29:00,
2013-04-11 16:35:00,35.6,33.8,30.10,NNE,19,1.0,10.0,93,0.00,,,0.16,WUHU216DAVISVP2,2013-04-11 20:35:00,
2013-04-11 16:40:00,35.6,33.8,30.10,NNE,21,7.0,10.0,93,0.00,,,0.16,WUHU216DAVISVP2,2013-04-11 20:40:00,
2013-04-11 16:45:00,35.6,33.7,30.10,ENE,58,5.0,10.0,93,0.00,,,0.16,WUHU216DAVISVP2,2013-04-11 20:45:00,
2013-04-11 16:52:00,35.7,33.8,30.09,NE,49,7.0,10.0,93,0.00,,,0.16,WUHU216DAVISVP2,2013-04-11 20:52:00,
2013-04-11 16:58:00,35.7,33.8,30.09,NNE,26,6.0,12.0,93,0.00,,,0.16,WUHU216DAVISVP2,2013-04-11 20:58:00,
2013-04-11 17:03:00,35.7,33.8,30.09,NE,46,5.0,12.0,93,0.00,,,0.16,WUHU216DAVISVP2,2013-04-11 21:03:00,
2013-04-11 17:08:00,35.7,33.8,30.09,NNE,21,6.0,12.0,93,0.00,,,0.16,WUHU216DAVISVP2,2013-04-11 21:08:00,
2013-04-11 17:14:00,35.7,33.8,30.09,NE,44,7.0,11.0,93,0.00,,,0.16,WUHU216DAVISVP2,2013-04-11 21:14:00,
2013-04-11 17:19:00,35.8,33.9,30.09,NE,46,4.0,11.0,93,0.00,,,0.16,WUHU216DAVISVP2,2013-04-11 21:19:00,
2013-04-11 17:24:00,35.8,33.9,30.09,NE,51,11.0,12.0,93,0.00,,,0.16,WUHU216DAVISVP2,2013-04-11 21:24:00,
2013-04-11 17:29:00,35.7,33.8,30.08,ENE,61,8.0,12.0,93,0.00,,,0.16,WUHU216DAVISVP2,2013-04-11 21:29:00,
2013-04-11 17:34:00,35.5,33.9,30.08,ENE,65,6.0,12.0,94,0.00,,,0.16,WUHU216DAVISVP2,2013-04-11 21:34:00,
2013-04-11 17:39:00,35.5,33.9,30.08,NNE,21,2.0,13.0,94,0.00,,,0.16,WUHU216DAVISVP2,2013-04-11 21:39:00,
2013-04-11 17:44:00,35.4,33.8,30.08,NE,41,7.0,13.0,94,0.00,,,0.16,WUHU216DAVISVP2,2013-04-11 21:44:00,
2013-04-11 17:50:00,35.3,33.7,30.08,NNW,338,2.0,13.0,94,0.00,,,0.16,WUHU216DAVISVP2,2013-04-11 21:50:00,
2013-04-11 17:55:00,35.3,34.0,30.08,ENE,58,3.0,13.0,95,0.02,,,0.18,WUHU216DAVISVP2,2013-04-11 21:55:00,
2013-04-11 18:00:00,35.2,33.9,30.08,NNE,20,4.0,10.0,95,0.02,,,0.18,WUHU216DAVISVP2,2013-04-11 22:00:00,
2013-04-11 18:06:00,35.1,33.8,30.08,NNE,30,2.0,10.0,95,0.02,,,0.18,WUHU216DAVISVP2,2013-04-11 22:06:00,
2013-04-11 18:12:00,35.1,34.0,30.07,ENE,74,2.0,10.0,96,0.02,,,0.19,WUHU216DAVISVP2,2013-04-11 22:12:00,
2013-04-11 18:17:00,35.0,33.9,30.08,NNE,29,5.0,10.0,96,0.03,,,0.19,WUHU216DAVISVP2,2013-04-11 22:17:00,
2013-04-11 18:23:00,35.0,33.9,30.09,ENE,62,5.0,10.0,96,0.03,,,0.19,WUHU216DAVISVP2,2013-04-11 22:23:00,
2013-04-11 18:28:00,35.2,34.1,30.08,NE,53,0.0,10.0,96,0.03,,,0.19,WUHU216DAVISVP2,2013-04-11 22:28:00,
2013-04-11 18:35:00,35.1,34.0,30.08,NE,53,8.0,11.0,96,0.03,,,0.19,WUHU216DAVISVP2,2013-04-11 22:35:00,
2013-04-11 18:42:00,34.9,33.8,30.08,NE,49,1.0,11.0,96,0.03,,,0.19,WUHU216DAVISVP2,2013-04-11 22:42:00,
2013-04-11 18:47:00,34.9,33.8,30.08,NNE,20,5.0,10.0,96,0.03,,,0.19,WUHU216DAVISVP2,2013-04-11 22:47:00,
2013-04-11 18:53:00,34.9,33.9,30.08,NNE,30,11.0,12.0,96,0.02,,,0.19,WUHU216DAVISVP2,2013-04-11 22:53:00,
2013-04-11 18:58:00,34.9,33.9,30.08,NNE,33,4.0,12.0,96,0.01,,,0.19,WUHU216DAVISVP2,2013-04-11 22:58:00,
2013-04-11 19:04:00,34.9,33.8,30.07,ENE,61,7.0,12.0,96,0.01,,,0.19,WUHU216DAVISVP2,2013-04-11 23:04:00,
2013-04-11 19:09:00,34.9,33.8,30.06,ENE,64,3.0,12.0,96,0.01,,,0.19,WUHU216DAVISVP2,2013-04-11 23:09:00,
2013-04-11 19:14:00,34.9,33.8,30.05,NNE,20,5.0,9.0,96,0.00,,,0.19,WUHU216DAVISVP2,2013-04-11 23:14:00,
2013-04-11 19:20:00,34.9,33.8,30.04,East,84,1.0,9.0,96,0.00,,,0.19,WUHU216DAVISVP2,2013-04-11 23:20:00,
2013-04-11 19:25:00,34.9,33.9,30.04,NNE,25,8.0,13.0,96,0.00,,,0.19,WUHU216DAVISVP2,2013-04-11 23:25:00,
2013-04-11 19:30:00,34.8,33.7,30.06,ESE,117,2.0,13.0,96,0.00,,,0.19,WUHU216DAVISVP2,2013-04-11 23:30:00,
2013-04-11 19:36:00,34.8,33.7,30.06,East,81,3.0,12.0,96,0.00,,,0.19,WUHU216DAVISVP2,2013-04-11 23:36:00,
2013-04-11 19:41:00,34.7,33.6,30.06,NE,34,7.0,10.0,96,0.00,,,0.19,WUHU216DAVISVP2,2013-04-11 23:41:00,
2013-04-11 19:47:00,34.7,33.6,30.06,SE,134,1.0,10.0,96,0.00,,,0.19,WUHU216DAVISVP2,2013-04-11 23:47:00,
2013-04-11 19:52:00,34.7,33.6,30.06,NNE,25,5.0,9.0,96,0.00,,,0.19,WUHU216DAVISVP2,2013-04-11 23:52:00,
2013-04-11 20:00:00,34.8,33.7,30.06,ENE,67,3.0,10.0,96,0.00,,,0.19,WUHU216DAVISVP2,2013-04-12 00:00:00,
2013-04-11 20:05:00,34.9,33.8,30.06,NE,40,2.0,9.0,96,0.00,,,0.19,WUHU216DAVISVP2,2013-04-12 00:05:00,
2013-04-11 20:10:00,34.9,34.1,30.06,ENE,66,2.0,9.0,97,0.00,,,0.19,WUHU216DAVISVP2,2013-04-12 00:10:00,
2013-04-11 20:15:00,34.9,34.1,30.06,NE,53,5.0,8.0,97,0.00,,,0.19,WUHU216DAVISVP2,2013-04-12 00:15:00,
2013-04-11 20:20:00,35.0,34.2,30.07,NE,49,4.0,8.0,97,0.00,,,0.19,WUHU216DAVISVP2,2013-04-12 00:20:00,
2013-04-11 20:25:00,35.1,34.3,30.07,NNE,21,2.0,8.0,97,0.00,,,0.19,WUHU216DAVISVP2,2013-04-12 00:25:00,
2013-04-11 20:31:00,35.1,34.3,30.07,NNE,25,0.0,8.0,97,0.00,,,0.19,WUHU216DAVISVP2,2013-04-12 00:31:00,
2013-04-11 20:36:00,35.2,34.4,30.08,NNW,340,2.0,8.0,97,0.00,,,0.19,WUHU216DAVISVP2,2013-04-12 00:36:00,
2013-04-11 20:41:00,35.3,34.5,30.07,NE,47,2.0,6.0,97,0.00,,,0.19,WUHU216DAVISVP2,2013-04-12 00:41:00,
2013-04-11 20:47:00,35.3,34.5,30.06,NE,53,3.0,9.0,97,0.00,,,0.19,WUHU216DAVISVP2,2013-04-12 00:47:00,
2013-04-11 20:52:00,35.4,34.6,30.06,NE,44,2.0,9.0,97,0.00,,,0.19,WUHU216DAVISVP2,2013-04-12 00:52:00,
2013-04-11 20:57:00,35.4,34.6,30.07,ENE,58,1.0,8.0,97,0.00,,,0.19,WUHU216DAVISVP2,2013-04-12 00:57:00,
2013-04-11 21:02:00,35.4,34.6,30.07,NNE,18,1.0,7.0,97,0.00,,,0.19,WUHU216DAVISVP2,2013-04-12 01:02:00,
2013-04-11 21:08:00,35.4,34.6,30.07,NE,53,3.0,7.0,97,0.00,,,0.19,WUHU216DAVISVP2,2013-04-12 01:08:00,
2013-04-11 21:13:00,35.5,34.7,30.06,ENE,77,2.0,7.0,97,0.00,,,0.19,WUHU216DAVISVP2,2013-04-12 01:13:00,
2013-04-11 21:18:00,35.6,34.8,30.06,NE,40,4.0,8.0,97,0.00,,,0.19,WUHU216DAVISVP2,2013-04-12 01:18:00,
2013-04-11 21:23:00,35.6,34.8,30.07,NNE,15,3.0,8.0,97,0.00,,,0.19,WUHU216DAVISVP2,2013-04-12 01:23:00,
2013-04-11 21:29:00,35.7,34.9,30.07,NNE,29,3.0,7.0,97,0.00,,,0.19,WUHU216DAVISVP2,2013-04-12 01:29:00,
2013-04-11 21:34:00,35.8,35.0,30.06,East,79,1.0,7.0,97,0.00,,,0.19,WUHU216DAVISVP2,2013-04-12 01:34:00,
2013-04-11 21:40:00,35.8,35.0,30.05,ENE,63,3.0,7.0,97,0.00,,,0.19,WUHU216DAVISVP2,2013-04-12 01:40:00,
2013-04-11 21:45:00,35.8,35.0,30.05,NE,49,4.0,12.0,97,0.00,,,0.19,WUHU216DAVISVP2,2013-04-12 01:45:00,
2013-04-11 21:50:00,35.9,35.1,30.05,NE,49,3.0,12.0,97,0.00,,,0.19,WUHU216DAVISVP2,2013-04-12 01:50:00,
2013-04-11 21:55:00,36.0,35.2,30.05,NE,39,4.0,10.0,97,0.00,,,0.19,WUHU216DAVISVP2,2013-04-12 01:55:00,
2013-04-11 22:01:00,36.1,35.3,30.06,NNE,22,4.0,10.0,97,0.00,,,0.19,WUHU216DAVISVP2,2013-04-12 02:01:00,
2013-04-11 22:06:00,36.2,35.4,30.06,NNE,30,4.0,8.0,97,0.00,,,0.19,WUHU216DAVISVP2,2013-04-12 02:06:00,
2013-04-11 22:11:00,36.3,35.5,30.06,ENE,58,3.0,8.0,97,0.00,,,0.19,WUHU216DAVISVP2,2013-04-12 02:11:00,
2013-04-11 22:16:00,36.3,35.5,30.06,NE,37,3.0,8.0,97,0.00,,,0.19,WUHU216DAVISVP2,2013-04-12 02:16:00,
2013-04-11 22:21:00,36.4,35.6,30.05,NE,47,2.0,8.0,97,0.00,,,0.19,WUHU216DAVISVP2,2013-04-12 02:21:00,
2013-04-11 22:26:00,36.5,35.7,30.05,NE,34,4.0,8.0,97,0.00,,,0.19,WUHU216DAVISVP2,2013-04-12 02:26:00,
2013-04-11 22:32:00,36.5,35.7,30.04,ENE,57,2.0,8.0,97,0.00,,,0.19,WUHU216DAVISVP2,2013-04-12 02:32:00,
2013-04-11 22:38:00,36.7,35.9,30.04,NNE,32,8.0,8.0,97,0.01,,,0.20,WUHU216DAVISVP2,2013-04-12 02:38:00,
2013-04-11 22:44:00,36.8,36.0,30.04,ENE,67,1.0,10.0,97,0.01,,,0.20,WUHU216DAVISVP2,2013-04-12 02:44:00,
2013-04-11 22:49:00,36.8,36.0,30.03,NNE,20,1.0,9.0,97,0.01,,,0.20,WUHU216DAVISVP2,2013-04-12 02:49:00,
2013-04-11 22:54:00,36.9,36.1,30.03,NNE,33,4.0,9.0,97,0.01,,,0.20,WUHU216DAVISVP2,2013-04-12 02:54:00,
2013-04-11 23:00:00,36.9,36.1,30.03,NNE,21,3.0,7.0,97,0.01,,,0.20,WUHU216DAVISVP2,2013-04-12 03:00:00,
2013-04-11 23:05:00,37.0,36.2,30.02,ENE,61,6.0,9.0,97,0.01,,,0.20,WUHU216DAVISVP2,2013-04-12 03:05:00,
2013-04-11 23:10:00,37.1,36.3,30.01,ENE,62,2.0,9.0,97,0.01,,,0.20,WUHU216DAVISVP2,2013-04-12 03:10:00,
2013-04-11 23:15:00,37.1,36.3,30.01,East,82,5.0,9.0,97,0.01,,,0.20,WUHU216DAVISVP2,2013-04-12 03:15:00,
2013-04-11 23:21:00,37.2,36.4,30.00,East,94,7.0,12.0,97,0.01,,,0.20,WUHU216DAVISVP2,2013-04-12 03:21:00,
2013-04-11 23:26:00,37.3,36.5,30.01,NE,40,2.0,12.0,97,0.01,,,0.20,WUHU216DAVISVP2,2013-04-12 03:26:00,
2013-04-11 23:31:00,37.4,36.3,30.01,NE,47,8.0,11.0,96,0.01,,,0.20,WUHU216DAVISVP2,2013-04-12 03:31:00,
2013-04-11 23:39:00,37.5,36.4,30.01,East,79,2.0,10.0,96,0.00,,,0.20,WUHU216DAVISVP2,2013-04-12 03:39:00,
2013-04-11 23:45:00,37.5,36.4,30.01,East,94,1.0,10.0,96,0.00,,,0.20,WUHU216DAVISVP2,2013-04-12 03:45:00,
2013-04-11 23:50:00,37.5,36.5,30.01,ESE,120,1.0,7.0,96,0.00,,,0.20,WUHU216DAVISVP2,2013-04-12 03:50:00,
2013-04-11 23:55:00,37.5,36.5,30.00,East,86,3.0,7.0,96,0.00,,,0.20,WUHU216DAVISVP2,2013-04-12 03:55:00,